#timestamp,LO_Frequency,Hit,StdDev 
1597919335.8,286046955.4,P
1597919355.6,286046956.2,P
1597919375.5,286046953.5,P
1597919395.3,286046955.9,Y
1597919415.1,286046996.9,P
1597919435.9,286046996.8,N
1597919455.7,286046995.0,N
1597919475.5,286046997.6,N
1597919495.4,286046997.8,N
1597919515.2,286046997.9,N
1597919535.1,286046995.7,N
1597919536.0,286046995.7,N
1597919555.8,286046993.8,N
1597919575.6,286046992.1,N
1597919595.5,286046992.1,N
1597919615.3,286046993.2,N
1597919635.1,286046991.3,N
1597919655.9,286046991.0,N
1597919675.7,286046991.3,N
1597919695.6,286046988.6,N
1597919715.4,286046989.3,N
1597919735.2,286046990.0,N
1597919755.1,286046987.2,N
1597919756.0,286046987.2,N
1597919775.8,286046987.0,N
1597919795.6,286046989.6,N
1597919815.5,286046987.5,N
1597919835.3,286046985.3,N
1597919855.2,286046986.3,N
1597919875.9,286046986.3,N
1597919895.7,286046984.0,N
1597919915.6,286046985.2,N
1597919935.4,286046982.2,N
1597919955.2,286046982.4,N
1597919975.1,286046982.7,Y
1597919976.0,286046982.7,P
1597919995.8,286046992.4,N
1597920015.7,286046992.3,N
1597920035.5,286046992.9,N
1597920055.3,286046992.6,N
1597920075.2,286046990.1,N
1597920095.0,286046989.0,Y
1597920095.9,286046989.0,P
1597920115.8,286047000.3,N
1597920135.6,286046999.8,N
1597920155.4,286047000.7,N
1597920175.3,286046998.4,N
1597920195.1,286046999.3,N
1597920215.8,286046996.7,N
1597920235.7,286046995.1,N
1597920255.5,286046995.0,N
1597920275.4,286046995.2,N
1597920295.2,286046996.0,N
1597920315.0,286046993.4,N
1597920315.9,286046993.4,N
1597920335.8,286046994.2,N
1597920355.6,286046994.3,N
1597920375.4,286046994.0,N
1597920395.3,286046994.3,N
1597920415.1,286046994.6,N
1597920435.9,286046992.5,N
1597920455.7,286046992.8,N
1597920475.5,286046992.2,N
1597920495.4,286046991.8,N
1597920515.2,286046992.7,N
1597920535.0,286046990.6,Y
1597920535.9,286046990.6,P
1597920555.8,286046995.1,N
1597920575.6,286046995.8,N
1597920595.5,286046995.4,N
1597920615.3,286046995.4,N
1597920635.1,286046995.7,N
1597920655.9,286046995.1,N
1597920675.7,286046995.6,N
1597920695.5,286046993.7,Y
1597920715.4,286047000.4,P
1597920735.2,286047000.3,N
1597920755.1,286047001.1,N
1597920756.0,286047001.1,N
1597920775.8,286047000.6,N
1597920795.6,286047000.9,N
1597920815.5,286046998.4,N
1597920835.3,286046999.3,N
1597920855.1,286046996.9,N
1597920875.9,286046997.2,N
1597920895.7,286046995.3,N
1597920915.6,286046995.7,N
1597920935.4,286046995.6,N
1597920955.2,286046993.8,N
1597920975.1,286046995.4,N
1597920976.0,286046995.4,N
1597920995.8,286046995.8,N
1597921015.6,286046994.2,N
1597921035.5,286046994.2,N
1597921055.3,286046994.8,N
1597921075.2,286046992.5,N
1597921095.9,286046993.1,N
1597921115.7,286046990.4,Y
1597921135.6,286046993.9,P
1597921155.4,286046996.0,N
1597921175.3,286046996.0,P
1597921195.1,286046993.4,Y
1597921196.0,286046993.4,P
